Regional Weather Roundup
Issued by NWS Mobile, AL

Home | Current Version | Previous Version | Text Only | Print | Product List | Glossary On
Versions: 1 2 3 4 5 6 7 8 9 10 11 12 13 14 15 16 17 18 19 20 21 22 23 24 25 26 27
000
ASUS44 KMOB 292312
RWRMOB
REGIONAL WEATHER ROUNDUP
NATIONAL WEATHER SERVICE MOBILE AL
600 PM CDT THU SEP 29 2016

NOTE: "FAIR" INDICATES FEW OR NO CLOUDS BELOW 12,000 FEET WITH NO
      SIGNIFICANT WEATHER AND/OR OBSTRUCTIONS TO VISIBILITY.

  * THESE STATIONS ARE PART OF THE UNIVERSITY OF SOUTH ALABAMA
    MESONET AND ARE NOT UNDER NWS OR FAA QUALITY CONTROL.

ALZ061>064-300000-
COASTAL ALABAMA

CITY           SKY/WX    TMP DP  RH WIND       PRES   REMARKS
MOBILE REG APT PTCLDY    79  57  46 N8        30.03R
BROOKLEY FIELD CLEAR     81  56  42 NW13      30.02R
USA CAMPUS*    NOT AVBL
DOG RIVER*     NOT AVBL


CITY           SKY/WX    TMP DP  RH WIND       PRES   REMARKS
MOUNT VERNON*  NOT AVBL
SARALAND*      NOT AVBL
BAY MINETTE*   NOT AVBL
LOXLEY*        NOT AVBL
ROBERTSDALE*   NOT AVBL
FAIRHOPE*      NOT AVBL
ELBERTA*       NOT AVBL
FOLEY*         NOT AVBL
GRAND BAY*     NOT AVBL
DAUPHIN ISLND* NOT AVBL
BON SCOUR NWR* NOT AVBL
GULF SHORES    CLEAR     81  62  53 N6        29.99S

$$

ALZ051>060-300000-
INTERIOR SOUTHWEST AND SOUTH CENTRAL ALABAMA

CITY           SKY/WX    TMP DP  RH WIND       PRES   REMARKS
GREENVILLE     CLEAR     77  43  29 NW8       30.02R
EVERGREEN      CLEAR     74  51  44 NW3       30.03R
CASTLEBERRY*   NOT AVBL
ATMORE*        NOT AVBL
DIXIE*         NOT AVBL
ANDALUSIA/OPP  CLEAR     81  54  39 NW12      30.00R
ANDALUSIA*     NOT AVBL
FLORALA APT    CLEAR     77  59  53 VRB3      30.01R
FLORALA*       NOT AVBL

$$

FLZ001>006-300000-
WESTERN FLORIDA PANHANDLE

CITY           SKY/WX    TMP DP  RH WIND       PRES   REMARKS
PENSACOLA      CLEAR     82  59  45 N9        29.99R
NAS PENSACOLA  CLEAR     81  61  50 NW6       29.98R
MILTON         PTCLDY    79  59  50 NW6       30.00R
WHTNG S FIELD  PTCLDY    81  60  48 NW8       29.99R


CITY           SKY/WX    TMP DP  RH WIND       PRES   REMARKS
WALNUT HILL*   NOT AVBL
JAY*           NOT AVBL
DUKE FIELD     PTCLDY    82  59  46 NW9       29.98R
CRESTVIEW      CLEAR     81  59  47 N10       30.00R
VALPARAISO     PTCLDY    85  60  42 NW10      29.97R
DESTIN         CLEAR     88  60  38 NW7       29.96R

$$

MSZ076-079-300000-
INTERIOR SOUTHEAST MISSISSIPPI

CITY           SKY/WX    TMP DP  RH WIND       PRES   REMARKS
LEAKESVILLE*   NOT AVBL
AGRICOLA*      NOT AVBL

$$

MARINE OBSERVATIONS

STATION/POSITION TIME  TEMP    WIND        PRES    WAVE
                       AIR SEA DIR/SP/G            HT/PER
                 (UTC) (F)     (DEG/KT/KT) (MB)    (FT/S)
PASCAGOULA       2200   82     360/ 10/ 14 1015.9S
PETIT BOIS ISLND 2200   82     350/  9/ 12 1016.6S
KATRINA CUT      2200   81     340/ 10     1015.9S
CEDAR POINT      2200   82     340/  9     1015.6S
E DAUPHIN ISLAND 2300   82     330/ 12/ 13 1015.8R
MIDDLE BAY LIGHT 2200   85     350/ 11     1015.6S
USCG MOBILE BAY  2200   82 85  320/  7/ 12 1016.5R
STATE DOCKS      2200   85 86              1015.9R
MEAHER PARK      2200   82     340/  6     1015.9R
FORT MORGAN      2200   81      20/ 10/ 12 1015.1F
12 S ORANGE BCH  2250   83 85  310/ 12/ 16 1015.6R   1/ 3
PENSACOLA BAY    2200   85 86  360/  9/ 12 1015.3R
64 S DAUPHIN ISL 2200   82 85  290/  8/ 10 1015.6S
67 S FORT MORGAN 2230   83        CALM     1016.3R

$$

SELECTED LOCATIONS ACROSS THE REGION

CITY           SKY/WX    TMP DP  RH WIND       PRES   REMARKS
NEW ORLEANS    PTCLDY    84  63  49 N10       30.03S
GULFPORT       CLEAR     82  59  45 N10       30.02R
PASCAGOULA AP  CLEAR     79  61  53 NW6       30.02R
PASCAGOULA*    NOT AVBL
HATTIESBURG    CLEAR     78  47  33 N8        30.06R
LAUREL         CLEAR     77  46  33 NW6       30.08R
MERIDIAN       CLEAR     79  45  29 N8        30.06S
JACKSON        CLEAR     76  46  34 NW8       30.09R
MONTGOMERY     CLEAR     77  43  29 W10       30.02R
TROY           CLEAR     76  48  37 NW7       30.01R
KINSTON*       NOT AVBL
GENEVA*        NOT AVBL
ASHFORD*       NOT AVBL
DOTHAN         CLEAR     81  58  45 W12       30.00R
PANAMA CITY    CLEAR     83  64  52 SW10      29.95R

$$





USA.gov is the U.S. government's official web portal to all federal, state and local government web resources and services.